Overview Statistics Trail Chart Weather Telemetry Raw packets
 

This is the latest recevied weather packets stored in our database for station/object NR0A-4. If no packets are shown the sender has not sent any weather packets the latest 10 day(s).

<< 28 29 30 31 32 33 34 >>
Time Temp. Humidity Pressure Rain* Wind** Luminosity Snow
1788463504 32.78° C 54% 1008.5 hPa 0 mm - 722 W/m² -
1788463203 32.78° C 54% 1008.5 hPa 0 mm - 731 W/m² -
1788462904 32.78° C 54% 1008.4 hPa 0 mm - 733 W/m² -
1788462604 32.78° C 55% 1008.5 hPa 0 mm - 733 W/m² -
1788462304 32.78° C 55% 1008.4 hPa 0 mm - 733 W/m² -
1788462003 32.22° C 55% 1008.5 hPa 0 mm - 738 W/m² -
1788461704 32.22° C 55% 1008.6 hPa 0 mm - 744 W/m² -
1788461404 32.22° C 55% 1008.7 hPa 0 mm - 747 W/m² -
1788461104 32.78° C 55% 1008.7 hPa 0 mm - 747 W/m² -
1788460804 32.78° C 55% 1008.7 hPa 0 mm - 747 W/m² -
1788460504 32.22° C 58% 1008.7 hPa 0 mm - 745 W/m² -
1788460204 32.22° C 57% 1008.7 hPa 0 mm - 749 W/m² -
1788459904 32.22° C 55% 1008.8 hPa 0 mm - 749 W/m² -
1788459604 32.22° C 57% 1008.8 hPa 0 mm - 751 W/m² -
1788459304 31.67° C 57% 1008.8 hPa 0 mm - 747 W/m² -
1788459004 31.67° C 56% 1008.9 hPa 0 mm - 747 W/m² -
1788458704 31.67° C 56% 1008.9 hPa 0 mm - 747 W/m² -
1788458404 31.67° C 57% 1008.9 hPa 0 mm - 744 W/m² -
1788458103 31.67° C 56% 1008.9 hPa 0 mm - 740 W/m² -
1788457804 31.67° C 57% 1009 hPa 0 mm - 738 W/m² -
1788457504 31.11° C 57% 1008.9 hPa 0 mm - 733 W/m² -
1788457204 31.11° C 57% 1008.8 hPa 0 mm - 735 W/m² -
1788456904 31.67° C 58% 1008.8 hPa 0 mm - 731 W/m² -
1788456604 31.67° C 58% 1008.9 hPa 0 mm - 722 W/m² -
1788456304 31.11° C 58% 1009.1 hPa 0 mm - 719 W/m² -

* Rain latest hour (hover to see other rain measurements)
** Current wind speed in m/s (hover to see current wind gust speed)